QPF
0.00 0.00 0.00 0.00 0.00 0.00 0.00 0.00 0.00 0.00 0.00 0.00 0.00 0.00 0.00 0.00 0.00 0.00 0.00 0.00 0.00 0.00 0.00 0.00 0.00 0.00 0.00 0.00 0.00 0.00 0.00 0.00 0.00 0.00 0.01 0.01 0.01 0.00 0.00 0.00 0.00 0.00 0.00 0.00
0.00 0.00 0.00 0.00 0.00 0.00 0.00 0.00 0.00 0.00 0.00 0.00 0.00 0.00 0.00 0.00 0.00 0.00 0.00 0.00 0.00 0.00 0.00 0.00 0.00 0.00 0.00 0.00 0.00 0.00 0.00 0.00 0.00 0.00 0.00 0.00 0.00 0.00 0.00 0.00 0.00 0.00 0.00 0.00
0.00 0.00 0.00 0.00 0.00 0.00 0.00 0.00 0.00 0.00 0.00 0.00 0.00 0.00 0.00 0.00 0.00 0.00 0.00 0.00 0.00 0.00 0.00 0.00 0.00 0.00 0.00 0.00 0.00 0.00 0.00 0.00 0.00 0.00 0.00 0.00 0.00 0.00 0.00 0.00 0.00 0.00 0.00 0.00
0.00 0.00 0.00 0.00 0.00 0.00 0.00 0.00 0.00 0.00 0.00 0.00 0.00 0.00 0.00 0.00 0.00 0.00 0.00 0.00 0.00 0.00 0.00 0.00 0.00 0.00 0.00 0.00 0.00 0.00 0.00 0.00 0.00 0.00 0.00 0.00 0.06 0.07 0.04 0.00 0.00 0.00 0.00 0.00
0.00 0.00 0.00 0.00 0.00 0.00 0.00 0.00 0.00 0.00 0.00 0.00 0.00 0.00 0.00 0.00 0.00 0.00 0.00 0.00 0.00 0.00 0.00 0.00 0.00 0.00 0.00 0.00 0.00 0.00 0.00 0.00 0.00 0.00 0.04 0.00 0.00 0.00 0.01 0.00 0.03 0.01 0.00 0.00
0.00 0.00 0.00 0.00 0.00 0.00 0.00 0.00 0.00 0.00 0.00 0.00 0.00 0.00 0.00 0.00 0.00 0.00 0.00 0.00 0.00 0.00 0.00 0.00 0.00 0.00 0.00 0.00 0.00 0.00 0.00 0.00 0.00 0.00 0.00 0.00 0.02 0.00 0.00 0.03 0.08 0.00 0.00 0.00
0.00 0.00 0.00 0.00 0.00 0.00 0.00 0.00 0.00 0.00 0.00 0.00 0.00 0.00 0.00 0.00 0.00 0.00 0.00 0.00 0.00 0.00 0.00 0.00 0.00 0.00 0.00 0.00 0.00 0.00 0.00 0.00 0.00 0.00 0.00 0.00 0.00 0.00 0.00 0.00 0.00 0.01 0.02 0.03
0.00 0.00 0.00 0.00 0.00 0.00 0.00 0.00 0.00 0.00 0.00 0.00 0.00 0.00 0.00 0.00 0.00 0.00 0.00 0.00 0.00 0.00 0.00 0.00 0.00 0.00 0.00 0.00 0.00 0.01 0.01 0.00 0.01 0.01 0.00 0.00 0.00 0.02 0.01 0.00 0.01 0.06 0.07 0.16
0.00 0.00 0.00 0.00 0.00 0.00 0.00 0.00 0.00 0.00 0.00 0.00 0.00 0.00 0.00 0.00 0.00 0.00 0.00 0.00 0.00 0.00 0.00 0.00 0.00 0.00 0.00 0.01 0.00 0.01 0.02 0.01 0.01 0.01 0.01 0.01 0.00 0.00 0.00 0.00 0.00 0.00 0.00 0.01
0.00 0.00 0.00 0.00 0.00 0.00 0.00 0.00 0.00 0.00 0.00 0.00 0.00 0.00 0.00 0.00 0.00 0.00 0.00 0.00 0.00 0.00 0.00 0.00 0.00 0.00 0.00 0.00 0.00 0.00 0.00 0.00 0.00 0.00 0.00 0.00 0.00 0.00 0.00 0.00 0.00 0.00 0.00 0.00
0.00 0.00 0.00 0.00 0.00 0.00 0.00 0.00 0.00 0.00 0.00 0.00 0.00 0.00 0.00 0.00 0.00 0.00 0.00 0.00 0.00 0.00 0.00 0.00 0.00 0.00 0.00 0.00 0.00 0.00 0.00 0.00 0.00 0.00 0.00 0.00 0.00 0.00 0.00 0.00 0.00 0.00 0.00 0.00
0.00 0.00 0.00 0.00 0.00 0.00 0.00 0.00 0.00 0.00 0.00 0.00 0.00 0.00 0.00 0.00 0.00 0.00 0.00 0.00 0.00 0.00 0.00 0.00 0.00 0.00 0.00 0.00 0.00 0.00 0.00 0.00 0.00 0.00 0.00 0.00 0.00 0.00 0.00 0.00 0.00 0.00 0.00 0.00
0.00 0.00 0.00 0.00 0.00 0.00 0.00 0.00 0.00 0.00 0.00 0.00 0.00 0.00 0.00 0.00 0.00 0.00 0.00 0.00 0.00 0.00 0.00 0.00 0.00 0.00 0.00 0.00 0.00 0.00 0.00 0.00 0.00 0.00 0.00 0.00 0.00 0.00 0.00 0.00 0.00 0.00 0.00 0.00
0.00 0.00 0.00 0.00 0.00 0.00 0.00 0.00 0.00 0.00 0.00 0.00 0.00 0.00 0.00 0.00 0.00 0.00 0.00 0.00 0.00 0.00 0.00 0.00 0.00 0.00 0.00 0.00 0.00 0.00 0.00 0.00 0.00 0.00 0.00 0.00 0.00 0.00 0.00 0.00 0.00 0.00 0.00 0.00
0.00 0.00 0.00 0.00 0.00 0.00 0.00 0.00 0.00 0.00 0.00 0.00 0.00 0.00 0.00 0.00 0.00 0.00 0.00 0.00 0.00 0.00 0.00 0.00 0.00 0.00 0.00 0.00 0.00 0.00 0.00 0.00 0.00 0.00 0.00 0.00 0.00 0.00 0.00 0.00 0.00 0.00 0.00 0.00
0.00 0.00 0.00 0.00 0.00 0.00 0.00 0.00 0.00 0.00 0.00 0.00 0.00 0.00 0.00 0.00 0.00 0.00 0.00 0.00 0.00 0.00 0.00 0.00 0.00 0.00 0.00 0.00 0.00 0.00 0.00 0.00 0.00 0.00 0.00 0.00 0.00 0.00 0.00 0.00 0.00 0.00 0.00 0.00
0.00 0.00 0.00 0.00 0.00 0.00 0.00 0.00 0.00 0.00 0.00 0.00 0.00 0.00 0.00 0.00 0.00 0.00 0.00 0.00 0.00 0.00 0.00 0.00 0.00 0.00 0.00 0.00 0.00 0.00 0.00 0.00 0.00 0.00 0.00 0.00 0.00 0.00 0.00 0.00 0.00 0.00 0.00 0.00
0.00 0.00 0.00 0.00 0.00 0.00 0.00 0.00 0.00 0.00 0.00 0.00 0.00 0.00 0.00 0.00 0.00 0.00 0.00 0.00 0.00 0.00 0.00 0.00 0.00 0.00 0.00 0.00 0.00 0.00 0.00 0.00 0.00 0.00 0.00 0.00 0.00 0.00 0.00 0.00 0.00 0.00 0.00 0.00
0.00 0.00 0.00 0.00 0.00 0.00 0.00 0.00 0.00 0.00 0.00 0.00 0.00 0.00 0.00 0.00 0.00 0.00 0.00 0.00 0.00 0.00 0.00 0.00 0.00 0.00 0.00 0.00 0.00 0.00 0.00 0.00 0.00 0.00 0.00 0.00 0.00 0.00 0.00 0.00 0.00 0.00 0.00 0.00
0.00 0.00 0.00 0.00 0.00 0.00 0.00 0.00 0.00 0.00 0.00 0.00 0.00 0.00 0.00 0.00 0.00 0.00 0.00 0.00 0.00 0.00 0.00 0.00 0.00 0.00 0.00 0.00 0.00 0.00 0.00 0.00 0.00 0.00 0.00 0.00 0.00 0.00 0.00 0.00 0.00 0.00 0.00 0.01
0.00 0.00 0.00 0.00 0.00 0.00 0.00 0.00 0.00 0.00 0.00 0.00 0.00 0.00 0.00 0.00 0.00 0.00 0.00 0.00 0.00 0.00 0.00 0.00 0.00 0.00 0.00 0.00 0.00 0.00 0.00 0.00 0.00 0.00 0.00 0.00 0.00 0.00 0.00 0.00 0.01 0.00 0.00 0.00
0.00 0.00 0.00 0.00 0.00 0.00 0.00 0.00 0.00 0.00 0.00 0.00 0.00 0.00 0.00 0.00 0.00 0.00 0.00 0.00 0.00 0.00 0.00 0.00 0.00 0.00 0.00 0.00 0.00 0.00 0.00 0.00 0.00 0.00 0.00 0.00 0.00 0.00 0.00 0.00 0.00 0.00 0.00 0.00
0.00 0.00 0.00 0.00 0.00 0.00 0.00 0.00 0.00 0.00 0.00 0.00 0.00 0.00 0.00 0.00 0.00 0.00 0.00 0.00 0.00 0.00 0.00 0.00 0.00 0.00 0.00 0.00 0.00 0.00 0.00 0.00 0.00 0.00 0.00 0.00 0.00 0.00 0.00 0.00 0.00 0.00 0.00 0.00
0.00 0.00 0.00 0.00 0.00 0.00 0.00 0.00 0.00 0.00 0.00 0.00 0.00 0.00 0.00 0.00 0.00 0.00 0.00 0.00 0.00 0.00 0.00 0.00 0.00 0.00 0.00 0.00 0.00 0.00 0.00 0.00 0.00 0.00 0.00 0.00 0.00 0.00 0.00 0.00 0.00 0.00 0.00 0.00
0.00 0.00 0.00 0.00 0.00 0.00 0.00 0.00 0.00 0.00 0.00 0.00 0.00 0.00 0.00 0.00 0.00 0.00 0.00 0.00 0.00 0.00 0.00 0.00 0.00 0.00 0.00 0.00 0.00 0.00 0.00 0.00 0.00 0.00 0.00 0.00 0.00 0.00 0.00 0.00 0.00 0.00 0.00 0.00
0.00 0.00 0.00 0.00 0.00 0.00 0.00 0.00 0.00 0.00 0.00 0.00 0.00 0.00 0.00 0.00 0.00 0.00 0.00 0.00 0.00 0.00 0.00 0.00 0.00 0.00 0.00 0.00 0.00 0.00 0.00 0.00 0.00 0.00 0.00 0.00 0.00 0.00 0.00 0.00 0.00 0.00 0.00 0.00
MSLP
1001.08 999.97 999.00 999.11 999.15 1000.08 1000.38 1000.05 1000.28 1000.44 1001.44 1001.97 1001.47 1001.74 1002.63 1003.87 1004.43 1004.75 1005.50 1005.97 1006.70 1007.39 1007.69 1007.97 1008.36 1008.77 1009.14 1009.98 1011.53 1012.04 1012.40 1013.10 1013.45 1013.66 1013.69 1013.83 1013.86 1013.99 1013.78 1013.74 1013.72 1013.91 1014.16 1014.34
1000.32 999.76 999.83 1000.21 1000.42 1000.40 1000.19 1000.04 999.72 1000.61 1001.37 1001.72 1001.16 1001.71 1002.14 1003.20 1003.73 1004.13 1004.98 1005.72 1006.57 1007.11 1007.35 1008.03 1008.27 1008.46 1008.55 1009.43 1010.90 1011.96 1012.33 1013.05 1013.52 1013.42 1013.28 1013.50 1013.46 1013.45 1013.66 1013.61 1013.58 1013.68 1013.92 1014.22
999.62 999.46 1000.25 1000.56 1000.31 1000.39 999.66 999.28 999.97 1000.39 1001.09 1001.86 1001.76 1001.72 1003.10 1002.82 1003.42 1003.88 1004.57 1005.55 1006.37 1006.46 1007.07 1007.46 1007.93 1008.16 1008.51 1009.21 1010.69 1011.66 1012.37 1012.92 1013.39 1013.23 1013.45 1013.61 1013.68 1013.60 1013.30 1013.12 1013.09 1013.28 1013.59 1013.69
999.70 999.64 1000.65 1000.36 1000.35 999.85 999.90 1000.48 1000.48 1000.52 1000.93 1003.85 1002.89 1001.41 1002.81 1001.77 1002.94 1004.07 1004.86 1005.94 1006.24 1006.38 1007.13 1007.45 1007.57 1008.08 1008.51 1009.22 1010.27 1011.41 1012.27 1012.74 1013.10 1013.29 1012.88 1013.10 1013.12 1013.61 1013.79 1013.44 1013.03 1013.07 1013.25 1013.34
999.57 999.44 999.86 1000.10 1000.01 999.84 999.74 1000.56 1000.31 1000.35 1000.17 1000.26 999.93 999.80 1001.01 1001.83 1002.29 1003.76 1004.74 1005.60 1005.87 1006.35 1006.87 1007.34 1007.62 1008.28 1008.48 1009.49 1010.27 1011.46 1012.37 1012.79 1012.90 1013.16 1013.38 1013.11 1013.39 1013.04 1013.20 1013.25 1013.67 1013.49 1013.37 1013.26
999.50 999.37 999.45 999.99 1000.13 1000.05 1000.39 1000.55 1000.24 1000.05 999.47 998.75 999.35 999.62 999.52 1001.34 1001.32 1003.18 1004.90 1005.73 1006.12 1006.67 1007.30 1007.71 1008.19 1009.10 1009.24 1009.78 1010.51 1011.28 1012.42 1013.05 1013.32 1013.55 1013.65 1013.76 1013.64 1013.53 1013.38 1013.58 1013.81 1013.39 1012.84 1012.85
999.82 999.60 999.93 999.88 999.71 1000.06 1000.59 999.85 999.00 999.44 998.85 998.77 998.74 999.41 999.85 1000.97 1002.27 1003.55 1004.95 1005.85 1006.56 1007.51 1007.77 1008.14 1008.70 1009.15 1009.52 1010.14 1010.58 1011.63 1012.45 1012.93 1013.20 1013.38 1013.60 1013.85 1013.73 1013.84 1013.73 1013.60 1012.94 1013.08 1012.75 1013.14
999.10 999.15 999.41 999.92 999.88 999.56 999.85 999.21 998.41 999.30 997.87 998.30 998.94 998.90 1000.15 1001.38 1002.96 1004.04 1004.90 1005.95 1006.73 1007.52 1007.94 1008.39 1008.78 1009.41 1010.01 1010.40 1010.76 1011.37 1012.32 1012.64 1012.99 1013.63 1013.91 1013.95 1014.07 1013.63 1013.25 1013.22 1013.99 1013.93 1013.89 1014.08
997.64 998.10 998.37 999.28 999.84 999.45 998.65 998.92 998.46 997.75 997.37 997.63 998.12 999.19 1000.95 1001.97 1002.98 1003.99 1004.87 1005.97 1006.72 1007.51 1008.09 1008.94 1009.86 1010.61 1011.09 1011.70 1012.01 1012.72 1013.04 1013.61 1013.70 1014.14 1014.18 1014.25 1014.32 1014.24 1014.04 1014.35 1014.45 1014.23 1014.44 1014.42
997.59 997.54 997.45 998.61 999.01 999.08 998.56 998.67 998.09 998.14 997.90 997.99 998.42 1000.09 1000.24 1002.28 1002.83 1003.56 1004.68 1005.66 1006.69 1007.52 1008.52 1009.43 1009.99 1010.66 1011.26 1011.87 1012.52 1012.96 1013.37 1013.74 1013.95 1014.03 1014.33 1014.60 1014.64 1014.82 1014.88 1014.71 1014.68 1014.83 1014.82 1014.73
998.05 997.12 997.79 998.61 998.67 998.27 998.79 998.77 998.53 997.85 998.62 998.06 999.21 1002.86 1002.25 1001.88 1002.35 1003.17 1004.26 1005.44 1006.63 1007.73 1008.94 1009.78 1010.61 1011.22 1011.67 1012.17 1012.78 1013.15 1013.65 1014.02 1014.20 1014.52 1014.93 1014.98 1014.94 1014.90 1014.75 1014.89 1015.07 1015.11 1015.17 1015.15
998.38 997.07 996.95 997.85 998.19 997.80 997.51 997.34 997.34 997.40 997.99 1000.09 1000.80 1001.32 1000.78 1000.70 1001.00 1002.74 1003.92 1005.49 1006.76 1008.16 1009.11 1009.93 1010.86 1011.42 1011.86 1012.39 1012.95 1013.47 1013.81 1014.16 1014.62 1014.91 1015.02 1014.93 1015.07 1015.12 1014.86 1015.20 1015.18 1015.31 1015.27 1015.20
998.35 997.66 996.56 997.07 997.44 998.03 997.90 997.80 997.43 996.77 997.05 998.64 1000.20 999.59 1000.05 1000.63 1000.78 1001.97 1003.60 1005.59 1006.98 1008.32 1009.28 1010.07 1010.84 1011.71 1012.25 1012.80 1013.38 1013.87 1014.27 1014.81 1014.83 1015.08 1014.97 1015.15 1015.15 1015.10 1015.18 1015.32 1015.45 1015.44 1015.40 1015.28
998.63 997.36 995.94 995.70 996.26 996.74 997.41 997.26 997.08 997.15 996.94 997.90 999.88 998.72 999.40 1000.02 1000.75 1001.89 1003.67 1005.37 1006.93 1008.32 1009.28 1010.00 1010.81 1011.90 1012.80 1013.54 1014.10 1014.48 1014.81 1015.05 1015.29 1015.43 1015.36 1015.52 1015.50 1015.53 1015.50 1015.60 1015.56 1015.48 1015.29 1015.07
998.48 997.55 996.69 996.17 997.49 996.38 996.38 996.64 997.09 997.25 997.42 997.42 997.61 998.10 998.61 999.31 1000.78 1002.06 1003.66 1005.26 1006.82 1008.01 1009.07 1009.94 1010.79 1011.85 1012.98 1013.79 1014.35 1014.79 1015.02 1015.33 1015.47 1015.50 1015.50 1015.65 1015.77 1015.72 1015.68 1015.57 1015.60 1015.53 1015.26 1015.00
998.36 997.46 997.24 996.73 996.55 997.06 997.00 997.03 996.99 997.05 997.55 997.67 997.83 998.11 998.62 999.97 1000.77 1001.86 1003.15 1004.95 1006.39 1007.59 1008.75 1009.86 1010.73 1011.89 1012.71 1013.49 1014.11 1014.62 1015.02 1015.38 1015.77 1015.90 1015.82 1015.98 1016.07 1015.94 1015.93 1016.18 1016.16 1015.88 1015.56 1015.07
997.49 997.24 997.20 996.94 997.25 997.20 997.36 997.32 996.95 996.66 996.81 997.01 997.50 998.33 999.41 1000.23 1001.09 1001.59 1002.62 1004.33 1005.84 1007.24 1008.36 1009.38 1010.45 1011.61 1012.43 1013.30 1014.01 1014.48 1014.90 1015.47 1015.81 1016.01 1016.01 1016.05 1016.11 1016.12 1016.53 1016.53 1016.47 1016.23 1015.89 1015.41
997.05 997.38 997.35 997.21 997.28 996.73 996.83 996.81 996.74 996.35 996.54 996.95 997.52 998.06 999.32 1000.32 1000.90 1001.69 1002.20 1003.64 1005.20 1006.51 1007.77 1008.94 1010.18 1011.39 1012.39 1013.27 1014.10 1014.72 1015.16 1015.62 1015.95 1016.11 1016.27 1016.24 1016.55 1016.53 1016.56 1016.44 1016.36 1016.06 1015.64 1015.38
996.45 996.96 997.15 997.10 997.64 997.94 997.51 998.54 998.33 997.24 997.18 997.30 997.68 998.23 999.36 1001.10 1001.61 1001.96 1002.32 1003.27 1004.83 1006.11 1007.46 1008.82 1010.01 1011.27 1012.57 1013.47 1014.34 1014.83 1015.24 1015.57 1015.84 1015.93 1016.24 1016.62 1016.71 1016.69 1016.57 1016.42 1016.30 1015.91 1015.49 1015.03
996.81 997.00 997.77 996.57 997.74 998.58 1000.18 1001.38 1000.62 998.02 997.89 997.89 998.69 999.00 999.76 1001.30 1001.40 1000.98 1002.62 1003.51 1004.56 1005.85 1007.33 1008.72 1009.81 1011.23 1012.68 1013.58 1014.24 1014.75 1015.14 1015.49 1015.74 1015.97 1016.50 1016.62 1017.00 1016.84 1016.67 1016.49 1016.19 1015.85 1015.80 1015.26
998.14 998.32 998.13 998.23 998.62 999.53 999.49 1000.94 1000.70 999.60 999.55 999.74 999.71 1000.15 1000.84 1001.78 1003.14 1003.55 1003.64 1004.27 1004.99 1006.18 1007.66 1009.09 1010.35 1011.66 1012.62 1013.66 1014.06 1014.55 1015.00 1015.37 1015.75 1016.17 1016.56 1016.86 1016.83 1016.86 1016.41 1016.29 1016.00 1016.03 1015.66 1015.40
999.09 998.72 998.28 998.57 998.86 998.83 999.05 999.66 999.52 1000.45 1000.71 1000.76 1000.76 1001.27 1001.90 1003.18 1004.05 1004.54 1004.82 1005.35 1005.95 1007.27 1008.70 1009.79 1010.92 1011.91 1013.03 1013.81 1014.26 1014.54 1014.98 1015.40 1015.95 1016.22 1016.42 1016.63 1016.73 1016.60 1016.02 1016.28 1016.11 1016.02 1015.87 1015.36
999.37 998.95 999.70 999.83 1000.13 999.80 999.52 999.50 1000.17 1000.33 1000.75 1001.06 1001.45 1002.16 1003.08 1003.99 1004.82 1005.60 1006.14 1006.75 1007.71 1008.67 1009.66 1010.34 1011.10 1012.33 1013.31 1013.97 1014.26 1014.46 1014.98 1015.61 1015.88 1015.97 1016.03 1016.09 1016.30 1016.36 1016.35 1016.15 1015.73 1015.52 1015.18 1014.75
1000.29 999.84 999.66 999.92 999.92 999.78 1000.55 1000.43 1000.78 1001.08 1001.15 1001.69 1002.18 1002.93 1003.74 1004.72 1005.64 1006.38 1007.14 1007.83 1008.62 1009.51 1010.10 1010.53 1011.33 1012.38 1013.28 1014.01 1014.53 1014.76 1015.12 1015.58 1015.76 1015.79 1015.81 1015.63 1015.48 1015.39 1015.52 1015.24 1014.36 1014.88 1015.32 1015.12
999.76 1000.28 999.79 1000.08 1000.15 1000.61 1000.76 1001.03 1001.46 1001.91 1002.16 1002.52 1003.21 1003.69 1004.48 1005.24 1005.99 1006.77 1007.57 1008.31 1009.10 1009.85 1010.43 1010.96 1011.69 1012.42 1013.13 1013.98 1014.45 1014.73 1015.14 1015.49 1015.47 1015.51 1015.41 1015.17 1014.80 1015.01 1014.94 1014.86 1014.64 1014.88 1015.67 1016.07
999.43 999.66 1000.10 1000.54 1001.48 1001.71 1001.79 1001.92 1002.38 1002.65 1002.88 1003.51 1003.98 1004.57 1005.15 1005.76 1006.51 1007.13 1008.00 1008.79 1009.51 1010.24 1010.86 1011.53 1012.11 1012.65 1013.27 1013.89 1014.30 1014.72 1015.01 1015.22 1015.36 1015.02 1014.56 1014.32 1014.52 1014.05 1014.09 1014.27 1014.18 1015.09 1015.61 1016.04
Thickness
5857 5852 5854 5861 5873 5856 5853 5853 5846 5859 5858 5841 5847 5847 5843 5841 5836 5831 5824 5824 5820 5817 5820 5822 5821 5820 5816 5808 5793 5790 5787 5786 5787 5786 5786 5787 5787 5788 5792 5793 5795 5793 5792 5791
5853 5839 5860 5865 5860 5855 5856 5850 5852 5854 5854 5844 5851 5840 5853 5845 5840 5839 5830 5825 5820 5818 5821 5818 5818 5819 5819 5811 5798 5790 5788 5785 5785 5789 5792 5792 5793 5796 5794 5795 5795 5795 5793 5791
5843 5860 5864 5853 5853 5845 5860 5860 5847 5840 5849 5850 5846 5834 5821 5846 5847 5846 5842 5834 5825 5823 5818 5818 5817 5818 5819 5812 5800 5792 5789 5786 5786 5791 5791 5791 5792 5793 5794 5797 5799 5799 5796 5796
5853 5870 5845 5847 5841 5861 5833 5856 5851 5843 5831 5738 5813 5809 5785 5838 5835 5833 5832 5823 5822 5822 5820 5819 5819 5816 5816 5813 5807 5797 5787 5787 5788 5790 5793 5790 5786 5779 5783 5790 5796 5798 5796 5797
5842 5853 5844 5837 5848 5865 5849 5856 5852 5848 5841 5846 5852 5839 5824 5839 5829 5826 5827 5824 5824 5822 5820 5817 5818 5816 5818 5813 5807 5797 5790 5789 5789 5789 5788 5788 5782 5788 5789 5789 5786 5790 5793 5794
5849 5876 5865 5850 5858 5863 5861 5847 5850 5852 5852 5831 5841 5839 5842 5825 5844 5833 5825 5822 5820 5816 5812 5812 5816 5811 5810 5811 5805 5799 5789 5785 5786 5785 5784 5779 5777 5779 5780 5781 5779 5786 5793 5794
5829 5836 5852 5860 5845 5855 5843 5840 5819 5797 5806 5813 5860 5838 5840 5849 5846 5835 5822 5818 5815 5806 5803 5803 5804 5805 5807 5804 5803 5796 5789 5784 5786 5785 5782 5779 5778 5776 5776 5778 5786 5786 5789 5786
5805 5799 5835 5848 5838 5837 5838 5846 5827 5766 5811 5822 5854 5829 5830 5852 5844 5838 5831 5822 5815 5805 5805 5803 5806 5804 5802 5803 5803 5799 5791 5788 5787 5782 5779 5779 5777 5780 5783 5783 5776 5777 5778 5777
5827 5816 5858 5849 5850 5854 5850 5833 5868 5847 5863 5844 5855 5849 5844 5843 5834 5830 5825 5818 5811 5805 5804 5799 5796 5793 5792 5790 5790 5785 5784 5778 5779 5776 5776 5775 5774 5773 5775 5774 5774 5776 5774 5774
5845 5816 5856 5849 5860 5860 5854 5868 5838 5845 5809 5807 5840 5827 5798 5816 5820 5825 5819 5815 5811 5808 5801 5796 5795 5793 5792 5791 5787 5784 5780 5776 5775 5776 5774 5771 5770 5768 5768 5770 5769 5769 5768 5769
5844 5846 5833 5841 5828 5833 5838 5831 5843 5855 5838 5827 5821 5765 5815 5826 5827 5824 5821 5817 5811 5804 5795 5791 5788 5788 5787 5786 5781 5778 5775 5771 5770 5769 5766 5765 5765 5765 5767 5765 5764 5763 5763 5763
5839 5848 5826 5827 5855 5871 5864 5857 5860 5835 5824 5808 5808 5785 5852 5854 5850 5833 5824 5815 5811 5800 5795 5790 5784 5783 5782 5779 5777 5774 5773 5769 5765 5764 5763 5764 5762 5762 5764 5761 5761 5760 5759 5759
5837 5826 5823 5825 5846 5852 5839 5851 5859 5872 5871 5819 5790 5815 5858 5850 5850 5841 5824 5813 5805 5795 5790 5787 5783 5777 5776 5774 5771 5768 5766 5760 5761 5759 5759 5758 5758 5758 5757 5756 5755 5755 5754 5753
5837 5837 5842 5827 5836 5852 5829 5846 5860 5856 5841 5828 5791 5821 5835 5834 5837 5834 5823 5813 5803 5793 5787 5785 5781 5775 5769 5765 5761 5759 5757 5756 5754 5752 5751 5750 5751 5751 5751 5750 5749 5749 5749 5748
5830 5813 5841 5854 5836 5856 5853 5850 5849 5842 5846 5833 5846 5836 5847 5843 5833 5829 5822 5812 5799 5791 5786 5783 5778 5771 5764 5759 5756 5753 5751 5749 5748 5747 5747 5745 5745 5746 5745 5746 5744 5743 5744 5743
5832 5814 5833 5830 5852 5844 5835 5846 5849 5849 5844 5844 5844 5839 5854 5846 5842 5828 5819 5807 5796 5791 5785 5780 5776 5768 5762 5757 5752 5749 5746 5743 5740 5737 5738 5738 5737 5738 5737 5734 5732 5733 5733 5735
5824 5824 5820 5808 5835 5835 5810 5830 5842 5850 5856 5851 5827 5832 5842 5829 5827 5825 5819 5809 5798 5790 5786 5780 5774 5766 5761 5754 5750 5744 5742 5737 5733 5731 5731 5731 5731 5729 5725 5725 5723 5722 5722 5725
5823 5819 5825 5811 5824 5789 5836 5866 5862 5854 5856 5855 5849 5848 5836 5833 5833 5830 5830 5814 5802 5794 5787 5780 5772 5763 5757 5751 5744 5739 5735 5730 5726 5725 5723 5724 5721 5720 5719 5718 5716 5716 5717 5717
5845 5828 5813 5804 5794 5801 5837 5836 5839 5833 5832 5854 5845 5843 5834 5825 5823 5817 5826 5821 5806 5798 5789 5779 5771 5760 5749 5741 5735 5730 5726 5724 5721 5720 5717 5713 5712 5710 5710 5708 5707 5708 5710 5712
5843 5837 5810 5798 5790 5773 5788 5784 5785 5836 5803 5846 5838 5833 5827 5816 5797 5813 5819 5816 5807 5799 5788 5775 5767 5754 5741 5734 5729 5723 5719 5717 5714 5713 5708 5707 5702 5702 5700 5699 5699 5701 5698 5700
5799 5799 5791 5793 5784 5778 5790 5787 5801 5780 5793 5824 5827 5820 5815 5801 5797 5804 5811 5804 5801 5792 5779 5768 5757 5744 5737 5729 5726 5718 5715 5711 5709 5705 5701 5697 5696 5694 5695 5693 5693 5690 5691 5689
5778 5778 5790 5798 5783 5776 5823 5815 5796 5803 5813 5812 5812 5811 5805 5798 5794 5793 5794 5789 5785 5774 5763 5755 5744 5737 5729 5723 5717 5712 5707 5706 5701 5698 5695 5691 5689 5688 5691 5685 5683 5681 5679 5679
5771 5791 5767 5783 5772 5801 5817 5813 5816 5818 5805 5805 5803 5802 5795 5787 5782 5780 5775 5772 5764 5756 5748 5744 5737 5726 5720 5714 5711 5706 5703 5697 5694 5692 5690 5688 5684 5681 5678 5676 5675 5674 5674 5674
5772 5792 5780 5781 5793 5793 5799 5805 5806 5805 5802 5802 5801 5794 5788 5776 5772 5766 5762 5756 5750 5743 5738 5736 5728 5718 5710 5706 5701 5699 5696 5691 5688 5685 5684 5683 5681 5679 5674 5673 5678 5669 5663 5661
5766 5770 5773 5775 5786 5787 5790 5793 5794 5793 5794 5791 5788 5783 5775 5769 5762 5758 5751 5745 5740 5734 5730 5725 5718 5711 5705 5700 5696 5694 5689 5686 5683 5681 5679 5678 5679 5672 5670 5667 5665 5661 5650 5643
5787 5773 5766 5760 5772 5771 5772 5784 5785 5779 5777 5775 5770 5765 5764 5759 5751 5748 5740 5736 5730 5723 5719 5712 5708 5703 5698 5694 5689 5686 5684 5681 5676 5676 5678 5677 5672 5673 5668 5662 5661 5647 5640 5632